Current weather by "City, St" or "zip code"  
 
Advertise Here

Current Conditions: Dothan, Dothan Regional Airport, AL

Overcast


67.0 F

Last Updated on Feb 28 2021, 4:53 am CST
Humidity: 93%
Wind Speed: SE 5.8 mph
Barometer 30.16 in
Dewpoint: 64.9 F
Visibility: 7.00 mi
Precip: --
Heat Index: NA
Wind Chill: NA
Current conditions at:

Dothan, Dothan Regional Airport, AL (KDHN)

Lat: 31.32139 Lon: 85.44972

Local Radar Image active severe weather and emergency alerts image image weather storm and storm spotter reports image weather observation monitoring service image
Local
Radar
Active
Alerts
Storm Reports Obs
Monitoring

Sign-up For Email & Text Message Weather Alert Notification Services


Advertise Here

Observation History for Dothan, Dothan Regional Airport, AL


Time Wind
(mph)
Vis
(mi)
Weather Precip (in) Temperature (F) Relative
Humidity
Wind
Chill
(F)
Heat
Index
(F)
Pressure
Air Dwpt altimeter
(in)
sea level
(mb)
Rmks
4:53 am CST SE 5.8 7.00 Overcast -- 67.0 64.9 93% NA NA 30.16 1021.0
3:53 am CST S 4.6 8.00 Overcast -- 66.0 64.9 96% NA NA 30.16 1020.8
2:53 am CST S 5.8 9.00 Overcast -- 67.0 66.0 97% NA NA 30.15 1020.5
1:53 am CST S 5.8 8.00 Overcast -- 68.0 66.0 93% NA NA 30.17 1021.0
12:53 am CST S 8.1 6.00 Fog/Mist -- 67.0 66.0 97% NA NA 30.18 1021.5
11:53 pm CST SE 3.5 4.00 Fog/Mist -- 64.0 63.0 96% NA NA 30.18 1021.5
10:53 pm CST S 4.6 7.00 Fair -- 65.0 63.0 93% NA NA 30.19 1022.0
9:53 pm CST S 6.9 9.00 Fair -- 67.0 62.1 84% NA NA 30.19 1022.1
8:53 pm CST S 5.8 10.00 Fair -- 68.0 61.0 78% NA NA 30.21 1022.4
7:53 pm CST S 5.8 10.00 Fair -- 70.0 61.0 73% NA NA 30.19 1022.0
6:53 pm CST S 6.9 10.00 Fair -- 73.0 61.0 66% NA NA 30.17 1021.3
5:53 pm CST S 6.9 10.00 Partly Cloudy -- 75.0 61.0 62% NA NA 30.16 1021.0
4:53 pm CST SE 4.6 10.00 A Few Clouds -- 77.0 66.0 69% NA NA 30.14 1020.2
3:53 pm CST SE 4.6 10.00 A Few Clouds -- 79.0 66.0 65% NA NA 30.14 1020.3
2:53 pm CST SE 4.6 10.00 Fair -- 79.0 66.0 65% NA NA 30.15 1020.6
1:53 pm CST S 6.9 10.00 Partly Cloudy -- 77.0 66.9 71% NA NA 30.17 1021.3
12:53 pm CST S 8.1 10.00 Mostly Cloudy -- 74.0 66.9 79% NA NA 30.19 1021.9
11:53 am CST S 6.9 10.00 Overcast -- 73.0 66.0 79% NA NA 30.21 1022.7
10:53 am CST S 9.2 10.00 Overcast -- 71.0 66.0 84% NA NA 30.23 1023.1
9:53 am CST SE 9.2 10.00 Overcast -- 69.0 64.9 87% NA NA 30.23 1023.2
8:53 am CST SE 8.1 4.00 Fog/Mist -- 66.0 64.0 93% NA NA 30.22 1023.0
7:53 am CST SE 9.2 7.00 Mostly Cloudy -- 64.0 62.1 93% NA NA 30.21 1022.6
6:53 am CST SE 3.5 8.00 Overcast -- 62.0 61.0 96% NA NA 30.20 1022.1
5:53 am CST S 3.5 10.00 Overcast -- 62.0 60.1 93% NA NA 30.19 1021.9

Regional Weather Observation


SCHELL AHP, AL (KSXS)

Overcast
66.0 F

Hanchey AHP / Ozark, AL (KHEY)

Overcast
65.0 F

Cairns Army Air Field / Ozark, AL (KOZR)

Overcast
67.0 F

Enterprise Municipal Airport, AL (KEDN)

Overcast
66.0 F

Dothan, Dothan Regional Airport, AL (KDHN)

Overcast
67.0 F

Eufaula Municipal Airport, AL (KEUF)

Mostly Cloudy
65.0 F
Advertise Here

Advertise Here